Regional Weather Roundup
Issued by NWS

Home | Current Version | Previous Version | Graphics & Text | Print | Product List | Glossary On
Versions: 1 2 3 4 5 6 7 8 9 10 11 12 13 14 15 16 17 18 19 20 21 22 23 24 25 26 27 28 29 30 31 32 33 34 35 36 37 38 39 40 41 42 43 44 45 46 47 48 49 50
000
ASUS43 KLMK 290510
RWRKY
SDFRWRKY ALL
KENTUCKY REGIONAL WEATHER ROUNDUP
NATIONAL WEATHER SERVICE LOUISVILLE KY
1200 AM EST SAT NOV 29 2014

NOTE "FAIR" INDICATES FEW OR NO CLOUDS BELOW 12,000 FEET
WITH NO SIGNIFICANT WEATHER AND/OR OBSTRUCTIONS TO VISIBILITY.

KYZ001>023-026-027-061>063-070>075-290600-
WESTERN AND SOUTH CENTRAL KENTUCKY

CITY           SKY/WX    TMP DP  RH WIND       PRES   REMARKS
PADUCAH        CLEAR     43  28  55 S7        30.04S
HENDERSON      CLEAR     37  25  60 S6        30.03S WCI  33
OWENSBORO      CLEAR     37  28  70 MISG      30.05F
HOPKINSVILLE   CLEAR     43  25  49 S14G21    30.07F
BOWLING GREEN  PTCLDY    43  22  43 S14       30.08F
GLASGOW        MOCLDY    42  21  43 S10       30.09F
$$

KYZ024-025-028>034-038-045-046-053-290600-
NORTH CENTRAL KENTUCKY

CITY           SKY/WX    TMP DP  RH WIND       PRES   REMARKS
LOUISVILLE/SDF CLOUDY    35  22  58 SE7       30.06F WCI  29
LOUISVILLE/LOU CLOUDY    36  21  54 SE3       30.07F
FORT KNOX      MOCLDY    35  23  60 S6        30.05S WCI  30
$$

KYZ035>037-039>044-047>052-055>060-089>105-290600-
NORTHEAST KENTUCKY

CITY           SKY/WX    TMP DP  RH WIND       PRES   REMARKS
LEXINGTON      CLEAR     34  20  56 S12       30.09F WCI  25
COVINGTON      CLOUDY    32  17  54 SE10      30.07F WCI  24
FRANKFORT      MOCLDY    33  20  58 S3        30.07F
$$

KYZ054-064>069-076>088-106>120-290600-
SOUTHEAST KENTUCKY

CITY           SKY/WX    TMP DP  RH WIND       PRES   REMARKS
JACKSON        CLEAR     33  16  49 S5        30.12R WCI  29
LONDON         CLEAR     36  17  46 S6        30.13F WCI  31
SOMERSET       CLEAR     36  19  51 S5        30.14S WCI  32
MIDDLESBORO    NOT AVBL
MONTICELLO     PTCLDY    40  21  46 S8        30.15S WCI  34
$$



USA.gov is the U.S. government's official web portal to all federal, state and local government web resources and services.